| time (UTC) | temp C | wind direction | speed KPH | gust KPH | rain 1hr cm | rain 24hr cm | rain mn cm | humidity % | barometer mb |
| 20260506073125 | 13 | 259 | 0.0 | 4.8 | 0.00 | 0.00 | 0.00 | 67 | 1011.5 |
| 20260506072621 | 13 | 180 | 1.6 | 3.2 | 0.00 | 0.00 | 0.00 | 67 | 1011.5 |
| 20260506072119 | 14 | 230 | 0.0 | 1.6 | 0.00 | 0.00 | 0.00 | 65 | 1011.6 |
| 20260506071617 | 14 | 246 | 0.0 | 1.6 | 0.00 | 0.00 | 0.00 | 65 | 1011.5 |
| 20260506071114 | 13 | 240 | 0.0 | 1.6 | 0.00 | 0.00 | 0.00 | 66 | 1011.5 |
| 20260506070611 | 14 | 172 | 1.6 | 3.2 | 0.00 | 0.00 | 0.00 | 65 | 1011.6 |
| 20260506070108 | 15 | 265 | 1.6 | 3.2 | 0.00 | 0.00 | 0.00 | 61 | 1011.4 |
| 20260506062045 | 15 | 228 | 1.6 | 3.2 | 0.00 | 0.00 | 0.00 | 60 | 1011.9 |
| 20260506061541 | 16 | 179 | 1.6 | 6.4 | 0.00 | 0.00 | 0.00 | 60 | 1011.7 |
| 20260506061038 | 16 | 185 | 0.0 | 3.2 | 0.00 | 0.00 | 0.00 | 58 | 1011.9 |
| 20260506060537 | 16 | 204 | 3.2 | 4.8 | 0.00 | 0.00 | 0.00 | 57 | 1012.2 |
| 20260506051006 | 16 | 260 | 4.8 | 4.8 | 0.00 | 0.00 | 0.00 | 56 | 1012.9 |
| 20260506050503 | 16 | 247 | 3.2 | 4.8 | 0.00 | 0.00 | 0.00 | 56 | 1012.7 |
| 20260506044954 | 16 | 242 | 4.8 | 9.7 | 0.00 | 0.00 | 0.00 | 54 | 1013.2 |
| 20260506044452 | 16 | 214 | 3.2 | 3.2 | 0.00 | 0.00 | 0.00 | 56 | 1013.3 |
| 20260506043948 | 16 | 273 | 8.0 | 11.3 | 0.00 | 0.00 | 0.00 | 57 | 1013.2 |
| 20260506043445 | 15 | 220 | 0.0 | 6.4 | 0.00 | 0.00 | 0.00 | 60 | 1013.2 |
| 20260506042943 | 15 | 242 | 1.6 | 4.8 | 0.00 | 0.00 | 0.00 | 61 | 1013.3 |
| 20260506042443 | 15 | 197 | 3.2 | 3.2 | 0.00 | 0.00 | 0.00 | 64 | 1013.0 |
| 20260506041940 | 14 | 241 | 0.0 | 4.8 | 0.00 | 0.00 | 0.00 | 62 | 1013.3 |
| 20260506041438 | 13 | 67 | 1.6 | 4.8 | 0.00 | 0.00 | 0.00 | 63 | 1013.0 |
| 20260506040935 | 13 | 114 | 0.0 | 1.6 | 0.00 | 0.00 | 0.00 | 64 | 1012.8 |
| 20260506040432 | 14 | 297 | 0.0 | 0.0 | 0.00 | 0.00 | 0.00 | 63 | 1012.9 |
| 20260506035928 | 15 | 231 | 0.0 | 3.2 | 0.00 | 0.00 | 0.00 | 62 | 1013.0 |
| 20260506035426 | 15 | 179 | 4.8 | 4.8 | 0.00 | 0.00 | 0.00 | 60 | 1013.2 |
| 20260506034922 | 14 | 231 | 1.6 | 3.2 | 0.00 | 0.00 | 0.00 | 62 | 1012.9 |
| 20260506034420 | 15 | 159 | 0.0 | 0.0 | 0.00 | 0.00 | 0.00 | 62 | 1013.2 |
| 20260506033917 | 13 | 238 | 0.0 | 0.0 | 0.00 | 0.00 | 0.00 | 63 | 1012.9 |
| 20260506033414 | 13 | 96 | 1.6 | 3.2 | 0.00 | 0.00 | 0.00 | 64 | 1013.0 |
| 20260506032911 | 15 | 257 | 0.0 | 1.6 | 0.00 | 0.00 | 0.00 | 62 | 1013.0 |
| 20260506032408 | 13 | 257 | 0.0 | 1.6 | 0.00 | 0.00 | 0.00 | 64 | 1013.2 |
| 20260506031904 | 13 | 78 | 0.0 | 0.0 | 0.00 | 0.00 | 0.00 | 64 | 1013.4 |
| 20260506031401 | 13 | 54 | 0.0 | 1.6 | 0.00 | 0.00 | 0.00 | 64 | 1013.5 |
| 20260506030859 | 14 | 40 | 0.0 | 1.6 | 0.00 | 0.00 | 0.00 | 64 | 1013.2 |
| 20260506030357 | 14 | 244 | 0.0 | 1.6 | 0.00 | 0.00 | 0.00 | 62 | 1013.4 |
| 20260506025854 | 15 | 187 | 0.0 | 1.6 | 0.00 | 0.00 | 0.00 | 62 | 1013.4 |
| 20260506025350 | 15 | 239 | 0.0 | 0.0 | 0.00 | 0.00 | 0.00 | 61 | 1013.4 |
| 20260506024847 | 15 | 274 | 0.0 | 1.6 | 0.00 | 0.00 | 0.00 | 59 | 1013.7 |
| 20260506024344 | 15 | 70 | 0.0 | 1.6 | 0.00 | 0.00 | 0.00 | 59 | 1013.6 |
| 20260506023840 | 15 | 90 | 0.0 | 0.0 | 0.00 | 0.00 | 0.00 | 60 | 1013.6 |
| 20260506023337 | 15 | 145 | 0.0 | 1.6 | 0.00 | 0.00 | 0.00 | 59 | 1013.5 |
| 20260506022834 | 15 | 353 | 1.6 | 1.6 | 0.00 | 0.00 | 0.00 | 55 | 1013.6 |
| 20260506022332 | 15 | 189 | 0.0 | 1.6 | 0.00 | 0.00 | 0.00 | 58 | 1013.6 |
| 20260506021830 | 16 | 204 | 0.0 | 1.6 | 0.00 | 0.00 | 0.00 | 55 | 1013.6 |
| 20260506021326 | 16 | 245 | 0.0 | 1.6 | 0.00 | 0.00 | 0.00 | 55 | 1013.7 |
| 20260506020823 | 16 | 160 | 3.2 | 6.4 | 0.00 | 0.00 | 0.00 | 54 | 1013.6 |
| 20260506020321 | 16 | 163 | 0.0 | 1.6 | 0.00 | 0.00 | 0.00 | 55 | 1013.4 |
| 20260506015818 | 16 | 137 | 0.0 | 3.2 | 0.00 | 0.00 | 0.00 | 50 | 1013.5 |
| 20260506015316 | 17 | 180 | 0.0 | 3.2 | 0.00 | 0.00 | 0.00 | 50 | 1013.4 |
| 20260506014812 | 17 | 161 | 0.0 | 4.8 | 0.00 | 0.00 | 0.00 | 50 | 1013.6 |
| 20260506014309 | 17 | 265 | 3.2 | 4.8 | 0.00 | 0.00 | 0.00 | 48 | 1013.4 |
| 20260506013806 | 17 | 103 | 4.8 | 4.8 | 0.00 | 0.00 | 0.00 | 49 | 1012.9 |
| 20260506013303 | 17 | 275 | 3.2 | 4.8 | 0.00 | 0.00 | 0.00 | 49 | 1013.2 |
| 20260506012759 | 16 | 278 | 1.6 | 3.2 | 0.00 | 0.00 | 0.00 | 53 | 1013.2 |
| 20260506012256 | 16 | 142 | 0.0 | 1.6 | 0.00 | 0.00 | 0.00 | 55 | 1013.0 |
| 20260506011754 | 17 | 109 | 0.0 | 0.0 | 0.00 | 0.00 | 0.00 | 54 | 1013.0 |
| 20260506011250 | 17 | 281 | 0.0 | 0.0 | 0.00 | 0.00 | 0.00 | 51 | 1013.0 |
| 20260506010748 | 17 | 235 | 0.0 | 0.0 | 0.00 | 0.00 | 0.00 | 52 | 1013.3 |
| 20260506010245 | 17 | 283 | 0.0 | 1.6 | 0.00 | 0.00 | 0.00 | 51 | 1013.2 |
| 20260506005743 | 17 | 138 | 0.0 | 1.6 | 0.00 | 0.00 | 0.00 | 52 | 1012.8 |
| 20260506005239 | 17 | 110 | 0.0 | 1.6 | 0.00 | 0.00 | 0.00 | 51 | 1012.8 |
| 20260506004735 | 17 | 282 | 0.0 | 3.2 | 0.00 | 0.00 | 0.00 | 55 | 1012.9 |
| 20260506004233 | 17 | 114 | 0.0 | 1.6 | 0.00 | 0.00 | 0.00 | 49 | 1012.7 |
| 20260506003728 | 17 | 127 | 0.0 | 1.6 | 0.00 | 0.00 | 0.00 | 51 | 1012.8 |
| 20260506003225 | 18 | 179 | 0.0 | 3.2 | 0.00 | 0.00 | 0.00 | 49 | 1012.7 |
| 20260506002721 | 17 | 247 | 0.0 | 1.6 | 0.00 | 0.00 | 0.00 | 50 | 1012.7 |
| 20260506002218 | 17 | 121 | 0.0 | 1.6 | 0.00 | 0.00 | 0.00 | 47 | 1012.9 |
| 20260506001713 | 17 | 147 | 0.0 | 0.0 | 0.00 | 0.00 | 0.00 | 49 | 1012.8 |
| 20260506001211 | 18 | 142 | 0.0 | 1.6 | 0.00 | 0.00 | 0.00 | 48 | 1012.8 |
| 20260506000708 | 17 | 234 | 0.0 | 4.8 | 0.00 | 0.00 | 0.00 | 49 | 1012.5 |
| 20260506000206 | 18 | 289 | 0.0 | 3.2 | 0.00 | 0.00 | 0.00 | 45 | 1012.8 |
| 20260505235703 | 18 | 239 | 1.6 | 3.2 | 0.00 | 0.00 | 0.00 | 41 | 1012.6 |
| 20260505235200 | 18 | 207 | 1.6 | 3.2 | 0.00 | 0.00 | 0.00 | 45 | 1012.6 |
| 20260505234657 | 19 | 156 | 1.6 | 3.2 | 0.00 | 0.00 | 0.00 | 41 | 1012.2 |
| 20260505234154 | 20 | 152 | 0.0 | 3.2 | 0.00 | 0.00 | 0.00 | 42 | 1012.2 |
| 20260505233651 | 20 | 125 | 0.0 | 1.6 | 0.00 | 0.00 | 0.00 | 41 | 1012.1 |
| 20260505233149 | 21 | 239 | 0.0 | 3.2 | 0.00 | 0.00 | 0.00 | 35 | 1012.2 |
| 20260505232646 | 21 | 223 | 3.2 | 6.4 | 0.00 | 0.00 | 0.00 | 32 | 1012.3 |
| 20260505232143 | 21 | 181 | 6.4 | 11.3 | 0.00 | 0.00 | 0.00 | 29 | 1012.2 |
| 20260505231640 | 22 | 207 | 8.0 | 16.1 | 0.00 | 0.00 | 0.00 | 30 | 1012.0 |
| 20260505231139 | 23 | 188 | 8.0 | 11.3 | 0.00 | 0.00 | 0.00 | 30 | 1012.4 |
| 20260505230637 | 23 | 130 | 6.4 | 6.4 | 0.00 | 0.00 | 0.00 | 30 | 1012.1 |
| 20260505230133 | 23 | 205 | 12.9 | 17.7 | 0.00 | 0.00 | 0.00 | 28 | 1012.1 |
| 20260505225629 | 23 | 215 | 6.4 | 16.1 | 0.00 | 0.00 | 0.00 | 30 | 1012.2 |
| 20260505225125 | 23 | 232 | 6.4 | 20.9 | 0.00 | 0.00 | 0.00 | 31 | 1012.3 |
| 20260505224622 | 23 | 280 | 9.7 | 14.5 | 0.00 | 0.00 | 0.00 | 30 | 1012.5 |
| 20260505224120 | 23 | 219 | 4.8 | 11.3 | 0.00 | 0.00 | 0.00 | 32 | 1012.5 |
| 20260505223617 | 23 | 214 | 4.8 | 17.7 | 0.00 | 0.00 | 0.00 | 33 | 1012.7 |
| 20260505223113 | 23 | 219 | 6.4 | 11.3 | 0.00 | 0.00 | 0.00 | 34 | 1012.8 |
| 20260505222609 | 22 | 249 | 6.4 | 16.1 | 0.00 | 0.00 | 0.00 | 33 | 1012.7 |
| 20260505222106 | 22 | 246 | 12.9 | 20.9 | 0.00 | 0.00 | 0.00 | 31 | 1012.6 |
| 20260505221603 | 23 | 176 | 11.3 | 17.7 | 0.00 | 0.00 | 0.00 | 31 | 1012.6 |
| 20260505221059 | 23 | 248 | 11.3 | 16.1 | 0.00 | 0.00 | 0.00 | 32 | 1012.6 |
| 20260505220556 | 23 | 273 | 11.3 | 25.7 | 0.00 | 0.00 | 0.00 | 31 | 1012.5 |
| 20260505220054 | 23 | 257 | 8.0 | 16.1 | 0.00 | 0.00 | 0.00 | 32 | 1012.6 |
| 20260505215552 | 22 | 209 | 11.3 | 17.7 | 0.00 | 0.00 | 0.00 | 30 | 1012.7 |
| 20260505215049 | 23 | 223 | 14.5 | 24.1 | 0.00 | 0.00 | 0.00 | 30 | 1012.7 |
| 20260505214548 | 24 | 241 | 19.3 | 30.6 | 0.00 | 0.00 | 0.00 | 28 | 1012.6 |
| 20260505214044 | 24 | 214 | 9.7 | 22.5 | 0.00 | 0.00 | 0.00 | 30 | 1012.6 |
| 20260505213542 | 24 | 354 | 6.4 | 16.1 | 0.00 | 0.00 | 0.00 | 30 | 1012.6 |
| 20260505213038 | 24 | 205 | 16.1 | 24.1 | 0.00 | 0.00 | 0.00 | 26 | 1012.8 |
| 20260505212535 | 24 | 243 | 4.8 | 20.9 | 0.00 | 0.00 | 0.00 | 28 | 1012.6 |
| 20260505212032 | 24 | 228 | 17.7 | 25.7 | 0.00 | 0.00 | 0.00 | 28 | 1012.4 |
| 20260505211529 | 24 | 220 | 17.7 | 27.4 | 0.00 | 0.00 | 0.00 | 26 | 1012.6 |
| 20260505211025 | 24 | 200 | 11.3 | 14.5 | 0.00 | 0.00 | 0.00 | 27 | 1012.4 |
| 20260505210522 | 24 | 192 | 14.5 | 20.9 | 0.00 | 0.00 | 0.00 | 26 | 1012.3 |
| 20260505210020 | 24 | 212 | 19.3 | 29.0 | 0.00 | 0.00 | 0.00 | 26 | 1012.5 |
| 20260505205518 | 24 | 250 | 8.0 | 33.8 | 0.00 | 0.00 | 0.00 | 24 | 1012.3 |
| 20260505205014 | 24 | 224 | 8.0 | 25.7 | 0.00 | 0.00 | 0.00 | 25 | 1012.5 |
| 20260505204512 | 24 | 218 | 9.7 | 24.1 | 0.00 | 0.00 | 0.00 | 26 | 1012.4 |
| 20260505204009 | 25 | 203 | 11.3 | 22.5 | 0.00 | 0.00 | 0.00 | 25 | 1012.3 |
| 20260505203506 | 25 | 236 | 11.3 | 24.1 | 0.00 | 0.00 | 0.00 | 28 | 1012.3 |
| 20260505203003 | 25 | 237 | 12.9 | 24.1 | 0.00 | 0.00 | 0.00 | 26 | 1012.4 |
| 20260505202459 | 25 | 194 | 11.3 | 35.4 | 0.00 | 0.00 | 0.00 | 27 | 1012.3 |
| 20260505201954 | 25 | 223 | 6.4 | 22.5 | 0.00 | 0.00 | 0.00 | 24 | 1012.3 |
| 20260505201452 | 24 | 235 | 9.7 | 24.1 | 0.00 | 0.00 | 0.00 | 26 | 1012.5 |
| 20260505200949 | 24 | 225 | 9.7 | 20.9 | 0.00 | 0.00 | 0.00 | 27 | 1012.5 |
| 20260505200447 | 24 | 208 | 6.4 | 25.7 | 0.00 | 0.00 | 0.00 | 30 | 1012.5 |
| 20260505195943 | 23 | 196 | 14.5 | 25.7 | 0.00 | 0.00 | 0.00 | 27 | 1012.6 |
| 20260505195440 | 24 | 168 | 14.5 | 25.7 | 0.00 | 0.00 | 0.00 | 27 | 1012.4 |
| 20260505194937 | 24 | 293 | 14.5 | 22.5 | 0.00 | 0.00 | 0.00 | 28 | 1012.4 |
| 20260505194434 | 25 | 233 | 6.4 | 11.3 | 0.00 | 0.00 | 0.00 | 33 | 1012.5 |
| 20260505193934 | 24 | 279 | 11.3 | 25.7 | 0.00 | 0.00 | 0.00 | 27 | 1012.6 |
| 20260505193432 | 25 | 165 | 16.1 | 22.5 | 0.00 | 0.00 | 0.00 | 26 | 1012.7 |
| 20260505192930 | 25 | 142 | 8.0 | 29.0 | 0.00 | 0.00 | 0.00 | 27 | 1012.6 |
| 20260505192428 | 24 | 228 | 17.7 | 27.4 | 0.00 | 0.00 | 0.00 | 25 | 1012.8 |
| 20260505191925 | 25 | 192 | 14.5 | 24.1 | 0.00 | 0.00 | 0.00 | 26 | 1012.8 |
| 20260505191424 | 25 | 244 | 9.7 | 25.7 | 0.00 | 0.00 | 0.00 | 27 | 1012.7 |
| 20260505190920 | 25 | 200 | 19.3 | 27.4 | 0.00 | 0.00 | 0.00 | 30 | 1012.7 |
| 20260505190416 | 24 | 209 | 17.7 | 33.8 | 0.00 | 0.00 | 0.00 | 29 | 1012.9 |
| 20260505185911 | 24 | 226 | 9.7 | 30.6 | 0.00 | 0.00 | 0.00 | 30 | 1012.9 |
| 20260505185409 | 25 | 241 | 9.7 | 17.7 | 0.00 | 0.00 | 0.00 | 31 | 1012.7 |
| 20260505184904 | 24 | 263 | 9.7 | 24.1 | 0.00 | 0.00 | 0.00 | 31 | 1012.8 |
| 20260505184401 | 25 | 290 | 9.7 | 17.7 | 0.00 | 0.00 | 0.00 | 34 | 1012.9 |
| 20260505183858 | 25 | 179 | 9.7 | 27.4 | 0.00 | 0.00 | 0.00 | 32 | 1012.8 |
| 20260505183355 | 25 | 189 | 16.1 | 20.9 | 0.00 | 0.00 | 0.00 | 32 | 1013.2 |
| 20260505182852 | 24 | 244 | 8.0 | 14.5 | 0.00 | 0.00 | 0.00 | 34 | 1013.2 |
| 20260505182349 | 25 | 199 | 12.9 | 17.7 | 0.00 | 0.00 | 0.00 | 33 | 1012.9 |
| 20260505181845 | 25 | 225 | 9.7 | 29.0 | 0.00 | 0.00 | 0.00 | 33 | 1013.3 |
| 20260505181343 | 25 | 258 | 9.7 | 17.7 | 0.00 | 0.00 | 0.00 | 35 | 1013.4 |
| 20260505180839 | 25 | 220 | 12.9 | 24.1 | 0.00 | 0.00 | 0.00 | 32 | 1013.4 |
| 20260505180336 | 25 | 262 | 9.7 | 12.9 | 0.00 | 0.00 | 0.00 | 33 | 1013.2 |
| 20260505175832 | 25 | 202 | 9.7 | 14.5 | 0.00 | 0.00 | 0.00 | 31 | 1013.5 |
| 20260505175329 | 25 | 261 | 6.4 | 14.5 | 0.00 | 0.00 | 0.00 | 32 | 1013.6 |
| 20260505174825 | 24 | 150 | 4.8 | 17.7 | 0.00 | 0.00 | 0.00 | 31 | 1013.7 |
| 20260505174323 | 24 | 213 | 14.5 | 25.7 | 0.00 | 0.00 | 0.00 | 32 | 1013.4 |
| 20260505173819 | 25 | 336 | 9.7 | 20.9 | 0.00 | 0.00 | 0.00 | 32 | 1013.8 |
| 20260505173315 | 24 | 257 | 6.4 | 11.3 | 0.00 | 0.00 | 0.00 | 37 | 1013.7 |
| 20260505172813 | 24 | 218 | 12.9 | 17.7 | 0.00 | 0.00 | 0.00 | 32 | 1013.7 |
| 20260505172310 | 25 | 184 | 12.9 | 20.9 | 0.00 | 0.00 | 0.00 | 33 | 1013.8 |
| 20260505171804 | 24 | 231 | 6.4 | 12.9 | 0.00 | 0.00 | 0.00 | 34 | 1014.1 |
| 20260505171301 | 24 | 225 | 8.0 | 20.9 | 0.00 | 0.00 | 0.00 | 33 | 1014.1 |
| 20260505170758 | 24 | 263 | 9.7 | 20.9 | 0.00 | 0.00 | 0.00 | 36 | 1014.1 |
| 20260505170255 | 23 | 217 | 14.5 | 25.7 | 0.00 | 0.00 | 0.00 | 34 | 1014.3 |
| 20260505165750 | 23 | 206 | 8.0 | 17.7 | 0.00 | 0.00 | 0.00 | 33 | 1014.2 |
| 20260505165246 | 23 | 273 | 11.3 | 17.7 | 0.00 | 0.00 | 0.00 | 35 | 1014.4 |
| 20260505164742 | 23 | 206 | 9.7 | 16.1 | 0.00 | 0.00 | 0.00 | 37 | 1014.4 |
| 20260505164239 | 23 | 268 | 11.3 | 20.9 | 0.00 | 0.00 | 0.00 | 37 | 1014.3 |
| 20260505163737 | 23 | 188 | 9.7 | 20.9 | 0.00 | 0.00 | 0.00 | 37 | 1014.5 |
| 20260505163236 | 23 | 189 | 6.4 | 20.9 | 0.00 | 0.00 | 0.00 | 37 | 1014.4 |
| 20260505162732 | 22 | 162 | 9.7 | 20.9 | 0.00 | 0.00 | 0.00 | 38 | 1014.6 |
| 20260505162229 | 22 | 200 | 8.0 | 14.5 | 0.00 | 0.00 | 0.00 | 39 | 1014.8 |
| 20260505161726 | 22 | 207 | 12.9 | 20.9 | 0.00 | 0.00 | 0.00 | 38 | 1014.6 |
| 20260505161224 | 22 | 284 | 11.3 | 16.1 | 0.00 | 0.00 | 0.00 | 35 | 1014.7 |
| 20260505160721 | 22 | 237 | 14.5 | 25.7 | 0.00 | 0.00 | 0.00 | 39 | 1015.1 |
| 20260505160219 | 22 | 259 | 17.7 | 22.5 | 0.00 | 0.00 | 0.00 | 35 | 1015.2 |
| 20260505153158 | 21 | 200 | 12.9 | 24.1 | 0.00 | 0.00 | 0.00 | 41 | 1015.5 |
| 20260505152654 | 21 | 170 | 17.7 | 24.1 | 0.00 | 0.00 | 0.00 | 40 | 1015.6 |
| 20260505152150 | 21 | 222 | 11.3 | 17.7 | 0.00 | 0.00 | 0.00 | 42 | 1015.4 |
| 20260505151646 | 21 | 219 | 9.7 | 17.7 | 0.00 | 0.00 | 0.00 | 42 | 1015.3 |
| 20260505151143 | 21 | 285 | 6.4 | 17.7 | 0.00 | 0.00 | 0.00 | 41 | 1015.3 |
| 20260505150639 | 21 | 188 | 14.5 | 17.7 | 0.00 | 0.00 | 0.00 | 40 | 1015.5 |
| 20260505150137 | 21 | 253 | 6.4 | 14.5 | 0.00 | 0.00 | 0.00 | 42 | 1015.2 |
| 20260505140605 | 20 | 232 | 11.3 | 16.1 | 0.00 | 0.00 | 0.00 | 46 | 1015.6 |
| 20260505125018 | 17 | 276 | 8.0 | 11.3 | 0.00 | 0.00 | 0.00 | 54 | 1015.5 |
| 20260505124515 | 17 | 209 | 3.2 | 6.4 | 0.00 | 0.00 | 0.00 | 59 | 1015.6 |
| 20260505124011 | 17 | 264 | 0.0 | 9.7 | 0.00 | 0.00 | 0.00 | 52 | 1015.6 |
| 20260505123508 | 17 | 215 | 8.0 | 12.9 | 0.00 | 0.00 | 0.00 | 58 | 1015.5 |
| 20260505123004 | 16 | 151 | 6.4 | 11.3 | 0.00 | 0.00 | 0.00 | 60 | 1015.6 |
| 20260505122501 | 16 | 275 | 6.4 | 9.7 | 0.00 | 0.00 | 0.00 | 61 | 1015.5 |
| 20260505121958 | 16 | 258 | 1.6 | 11.3 | 0.00 | 0.00 | 0.00 | 61 | 1015.6 |
| 20260505121455 | 15 | 251 | 0.0 | 3.2 | 0.00 | 0.00 | 0.00 | 72 | 1015.7 |
| 20260505120951 | 14 | 191 | 6.4 | 9.7 | 0.00 | 0.00 | 0.00 | 68 | 1015.7 |
| 20260505120447 | 14 | 205 | 4.8 | 9.7 | 0.00 | 0.00 | 0.00 | 70 | 1015.7 |
| 20260505115946 | 13 | 219 | 3.2 | 6.4 | 0.00 | 0.00 | 0.00 | 70 | 1015.7 |
| 20260505115443 | 13 | 53 | 1.6 | 6.4 | 0.00 | 0.00 | 0.00 | 76 | 1015.8 |
| 20260505114942 | 12 | 243 | 6.4 | 11.3 | 0.00 | 0.00 | 0.00 | 76 | 1015.9 |
| 20260505114437 | 12 | 213 | 1.6 | 4.8 | 0.00 | 0.00 | 0.00 | 77 | 1016.1 |
| 20260505113934 | 12 | 216 | 6.4 | 9.7 | 0.00 | 0.00 | 0.00 | 75 | 1016.1 |
| 20260505113430 | 12 | 217 | 8.0 | 11.3 | 0.00 | 0.00 | 0.00 | 75 | 1016.2 |
| 20260505112926 | 11 | 152 | 4.8 | 11.3 | 0.00 | 0.00 | 0.00 | 79 | 1016.0 |
| 20260505112424 | 11 | 191 | 6.4 | 12.9 | 0.00 | 0.00 | 0.00 | 78 | 1016.1 |
| 20260505111920 | 10 | 182 | 3.2 | 4.8 | 0.00 | 0.00 | 0.00 | 82 | 1016.0 |
| 20260505111415 | 10 | 159 | 3.2 | 6.4 | 0.00 | 0.00 | 0.00 | 82 | 1016.1 |
| 20260505110911 | 9 | 191 | 3.2 | 11.3 | 0.00 | 0.00 | 0.00 | 84 | 1016.0 |
| 20260505110408 | 9 | 258 | 1.6 | 3.2 | 0.00 | 0.00 | 0.00 | 86 | 1015.9 |
| 20260505101839 | 9 | 62 | 1.6 | 1.6 | 0.00 | 0.00 | 0.00 | 87 | 1015.3 |
| 20260505101334 | 9 | 146 | 1.6 | 3.2 | 0.00 | 0.00 | 0.00 | 86 | 1015.4 |
| 20260505100830 | 9 | 62 | 1.6 | 1.6 | 0.00 | 0.00 | 0.00 | 85 | 1015.3 |
| 20260505100327 | 9 | 270 | 1.6 | 4.8 | 0.00 | 0.00 | 0.00 | 85 | 1015.2 |
| 20260505095822 | 9 | 167 | 1.6 | 3.2 | 0.00 | 0.00 | 0.00 | 85 | 1015.3 |
| 20260505095321 | 9 | 81 | 0.0 | 0.0 | 0.00 | 0.00 | 0.00 | 86 | 1015.0 |
| 20260505094816 | 9 | 184 | 3.2 | 4.8 | 0.00 | 0.00 | 0.00 | 85 | 1015.2 |
| 20260505094313 | 10 | 283 | 3.2 | 4.8 | 0.00 | 0.00 | 0.00 | 84 | 1015.1 |
| 20260505093808 | 10 | 284 | 1.6 | 3.2 | 0.00 | 0.00 | 0.00 | 84 | 1015.2 |
| 20260505093307 | 10 | 11 | 0.0 | 1.6 | 0.00 | 0.00 | 0.00 | 83 | 1015.1 |
| 20260505092803 | 10 | 221 | 0.0 | 1.6 | 0.00 | 0.00 | 0.00 | 83 | 1015.1 |
| 20260505092304 | 10 | 123 | 1.6 | 6.4 | 0.00 | 0.00 | 0.00 | 81 | 1015.0 |
| 20260505091758 | 10 | 303 | 1.6 | 4.8 | 0.00 | 0.00 | 0.00 | 83 | 1015.0 |
| 20260505091256 | 10 | 213 | 4.8 | 6.4 | 0.00 | 0.00 | 0.00 | 82 | 1015.0 |
| 20260505090754 | 9 | 183 | 6.4 | 9.7 | 0.00 | 0.00 | 0.00 | 84 | 1014.7 |
| 20260505090252 | 9 | 50 | 0.0 | 4.8 | 0.00 | 0.00 | 0.00 | 87 | 1015.2 |
| 20260505085749 | 8 | 296 | 1.6 | 3.2 | 0.00 | 0.00 | 0.00 | 87 | 1014.7 |
| 20260505085247 | 8 | 61 | 0.0 | 1.6 | 0.00 | 0.00 | 0.00 | 87 | 1015.0 |
| 20260505084744 | 9 | 265 | 0.0 | 6.4 | 0.00 | 0.00 | 0.00 | 84 | 1015.0 |
| 20260505084244 | 9 | 258 | 3.2 | 9.7 | 0.00 | 0.00 | 0.00 | 84 | 1015.1 |
| 20260505083740 | 9 | 329 | 0.0 | 1.6 | 0.00 | 0.00 | 0.00 | 87 | 1015.0 |
| 20260505083236 | 10 | 40 | 1.6 | 3.2 | 0.00 | 0.00 | 0.00 | 84 | 1015.0 |
| 20260505082732 | 10 | 30 | 1.6 | 3.2 | 0.00 | 0.00 | 0.00 | 83 | 1014.8 |
| 20260505082230 | 8 | 158 | 8.0 | 9.7 | 0.00 | 0.00 | 0.00 | 88 | 1014.7 |
| 20260505081726 | 8 | 333 | 1.6 | 1.6 | 0.00 | 0.00 | 0.00 | 88 | 1014.6 |
| 20260505081223 | 9 | 277 | 0.0 | 1.6 | 0.00 | 0.00 | 0.00 | 87 | 1014.7 |
| 20260505080720 | 8 | 190 | 6.4 | 9.7 | 0.00 | 0.00 | 0.00 | 88 | 1014.6 |
| 20260505080215 | 8 | 228 | 3.2 | 6.4 | 0.00 | 0.00 | 0.00 | 89 | 1014.7 |
| 20260505075711 | 8 | 67 | 0.0 | 1.6 | 0.00 | 0.00 | 0.00 | 90 | 1014.6 |
| 20260505075209 | 8 | 149 | 0.0 | 1.6 | 0.00 | 0.00 | 0.00 | 90 | 1014.7 |
| 20260505074706 | 8 | 167 | 0.0 | 1.6 | 0.00 | 0.00 | 0.00 | 90 | 1014.5 |